Regional Weather Roundup
Issued by NWS

Home | Current Version | Previous Version | Graphics & Text | Print | Product List | Glossary On
Versions: 1 2 3 4 5 6 7 8 9 10 11 12 13 14 15 16 17 18 19 20 21 22 23 24 25 26 27 28 29 30 31 32 33 34 35 36 37 38 39 40 41 42 43 44 45 46 47 48
000
ASUS45 KBOU 062307
RWRCO

WEATHER ROUNDUP FOR COLORADO
NATIONAL WEATHER SERVICE DENVER/BOULDER CO
400 PM MST SAT FEB 06 2016

NOTE: "FAIR" INDICATES FEW OR NO CLOUDS BELOW 12000 FEET WITH NO
SIGNIFICANT WEATHER AND/OR OBSTRUCTIONS TO VISIBILITY.

COZ001>005-013-030-031-070000-
...NORTHWEST COLORADO...

CITY           SKY/WX    TMP DP  RH WIND       PRES   REMARKS
CRAIG          CLOUDY    20  12  71 CALM      30.38F
HAYDEN         CLOUDY    19  10  68 E6        30.37S WCI  11
MEEKER         SUNNY     26  14  60 N7        30.38S WCI  18
MOUNT WERNER   NOT AVBL
STEAMBOAT SPGS CLOUDY    21  10  62 CALM      30.37F
WALDEN         CLOUDY    30  16  55 S10G20    30.27F WCI  21
$$

COZ006>008-011-070000-
...WEST CENTRAL VALLEYS...

CITY           SKY/WX    TMP DP  RH WIND       PRES   REMARKS
GRAND JUNCTION SUNNY     21  14  74 NW7       30.48F WCI  12
MONTROSE       SUNNY     30  14  51 CALM      30.45F
EAGLE          SUNNY     27  14  59 CALM      30.42F
RIFLE          SUNNY     27  10  49 SE3       30.45S
DELTA          SUNNY     32  14  47 CALM      30.47F
NUCLA          SUNNY     36  14  41 CALM      30.46F
$$

COZ017>023-064>068-070000-
...SOUTHWEST COLORADO...

CITY           SKY/WX    TMP DP  RH WIND       PRES   REMARKS
DURANGO        SUNNY     30  13  49 NE6       30.38R WCI  24
CORTEZ         SUNNY     37  17  44 SW3       30.40F
PAGOSA SPRINGS SUNNY     34  13  41 CALM      30.36S
TELLURIDE      CLOUDY    34  13  42 W13G18    30.39F WCI  25
WOLF CREEK PAS SUNNY     28  10  47 N7        30.41R WCI  21
$$

COZ009-010-012-014-032>034-037-058>063-070000-
...CENTRAL COLORADO...

CITY           SKY/WX    TMP DP  RH WIND       PRES   REMARKS
ASPEN          CLOUDY    31  15  52 N3        30.36F
BUENA VISTA    CLOUDY    40  15  36 NW16G23   30.27R
COPPER MTN     CLOUDY    27  12  54 NW8       30.36S WCI  18
BERTHOUD PASS  FAIR      12   1  62 NW41G49   30.25F HAZE    WCI -12
COTTONWOOD PAS CLOUDY    37   9  30 SW24G30   30.30S
GUNNISON       CLOUDY     7  -2  66 CALM      30.47F
KREMMLING      CLOUDY    12   1  62 CALM      30.41F
LEADVILLE      CLOUDY    31  11  43 NW9       30.32S WCI  23
MONARCH PASS     N/A     16  12  86 MISG      30.43R
SALIDA         NOT AVBL
SUNLIGHT       SUNNY     30  23  74 CALM        N/A
WILKERSON PASS CLOUDY    30  12  47 W6        30.32S WCI  24
$$

COZ069>075-070000-
...SAN LUIS VALLEY/SANGRE DE CRISTO MOUNTAINS...

CITY           SKY/WX    TMP DP  RH WIND       PRES   REMARKS
ALAMOSA        SUNNY     34   7  32 NW6       30.33S WCI  29
LA VETA PASS   CLOUDY    27  12  54 MISG      30.28R
SAGUACHE       SUNNY     32  10  40 SW3       30.35S
$$

COZ035-036-038>040-070000-
...NORTHERN COLORADO FRONT RANGE...

CITY           SKY/WX    TMP DP  RH WIND       PRES   REMARKS
DENVER INTL AP CLOUDY    48  21  34 W17       30.08F
DMNS CITY PARK   N/A     52  14  22 W5G13     30.10S
AURORA         PTSUNNY   49  20  31 W10       30.10F
FRONT RANGE AP PTSUNNY   45  25  45 SW12      30.10F
ERIE MUNI ARPT SUNNY     49  18  29 W7        30.07S
BOULDER MUN AP SUNNY     52  18  25 SE3       30.07S
CENTENNIAL     CLOUDY    50  17  27 W14       30.11F
BROOMFIELD     PTSUNNY   48  18  29 W18       30.10S
FORT COLLINS   CLOUDY    39  25  56 CALM      30.08F
LONGMONT       CLOUDY    48  22  36 S5        30.08S
$$

COZ041-046-047-076>085-087-088-070000-
...PIKES PEAK/PALMER DIVIDE AND SOUTHERN FOOTHILLS...

CITY           SKY/WX    TMP DP  RH WIND       PRES   REMARKS
COLO. SPRINGS  CLOUDY    41   8  25 E3        30.15S
A. F. ACADEMY  CLOUDY    46  18  32 E5        30.14S
SCHRIEVER AFB  FAIR      41  14  33 N3        30.15S
ELLICOTT       NOT AVBL
FALCON         CLOUDY    43  10  26 CALM      30.16S
FORT CARSON    CLOUDY    36  20  52 N3        30.14F
LIMON          CLOUDY    33  21  61 N6        30.13S WCI  28
MONUMENT HILL  CLOUDY    37  21  52 NW8       30.17S
TRINIDAD       SUNNY     54  10  17 NE6       30.17R
$$

COZ042>045-048>051-090-091-070000-
...NORTHEAST COLORADO...

CITY           SKY/WX    TMP DP  RH WIND       PRES   REMARKS
GREELEY ARPT   CLOUDY    34  21  60 S6        30.09F WCI  29
AKRON          CLOUDY    38  24  57 SW14      30.06F
BURLINGTON     CLOUDY    37  26  64 SW13      30.11F
WRAY           CLOUDY    43  27  52 SW9       30.07F
STERLING       CLOUDY    34  23  64 SW10      30.04F WCI  26
HOLYOKE        CLOUDY    41  27  56 W12       30.05S
FORT MORGAN    CLOUDY    33  21  60 W9        30.08F WCI  25
$$

COZ086-089-092>099-070000-
...SOUTHEAST COLORADO...

CITY           SKY/WX    TMP DP  RH WIND       PRES   REMARKS
PUEBLO         SUNNY     48  20  32 N7        30.13F
LA JUNTA       CLOUDY    43  26  51 NE3       30.15S
LAMAR          CLOUDY    49  21  33 SW7       30.13F
SPRINGFIELD      N/A     55   8  15 SW7       30.14F
$$



USA.gov is the U.S. government's official web portal to all federal, state and local government web resources and services.